Location: Colonia Mina de C?rbuni
(46.1667°N, 22.7167°E)
Time: 16:11:43
(UTC+00:00)

Vanguard 1 Rocket - Pass Details

Date: 21 April 2024
Orbit: 650 x 4220 km, 34.3° (Epoch: 22 May)

Event Time Altitude Azimuth Distance (km) Brightness Sun altitude
Rises 20:10:21 0° 259° (W) 3,652 10.8 -23.9°
Reaches altitude 10° 20:12:44 10° 249° (WSW) 2,975 10.2 -24.2°
Maximum altitude 20:19:13 33° 187° (S) 2,429 9.1 -24.8°
Enters shadow 20:19:54 33° 180° (S) 2,515 9.2 -24.9°
